Hourly Weather Rutka 1

Today, 8 May, Saturday

Time Temperature Precipitation Wind Pressure Humidity
00:00 +3°C° 0 mm 2 mps 732 mmHg 95%
01:00 +2°C° 0 mm 2 mps 733 mmHg 96%
02:00 +2°C° 0 mm 2 mps 733 mmHg 96%
03:00 +1°C° 0 mm 2 mps 733 mmHg 95%
04:00 +1°C° 0 mm 2 mps 734 mmHg 95%
05:00 0°C° 0 mm 3 mps 734 mmHg 94%
06:00 +1°C° 0 mm 3 mps 735 mmHg 92%
07:00 0°C° 0 mm 4 mps 735 mmHg 90%
08:00 +1°C° 0 mm 5 mps 736 mmHg 87%
09:00 +1°C° 0 mm 5 mps 736 mmHg 83%
10:00 +2°C° 0 mm 5 mps 736 mmHg 79%
11:00 +2°C° 0 mm 6 mps 737 mmHg 75%
12:00 +3°C° 0 mm 6 mps 737 mmHg 67%
13:00 +6°C° 0 mm 5 mps 738 mmHg 59%
14:00 +7°C° 0 mm 5 mps 738 mmHg 51%
15:00 +7°C° 0 mm 5 mps 738 mmHg 52%
16:00 +7°C° 0 mm 5 mps 738 mmHg 53%
17:00 +7°C° 0 mm 5 mps 739 mmHg 55%
18:00 +6°C° 0.1 mm 4 mps 739 mmHg 63%
19:00 +4°C° 0.1 mm 3 mps 740 mmHg 72%
20:00 +4°C° 0.1 mm 2 mps 740 mmHg 81%
21:00 +3°C° 0 mm 2 mps 740 mmHg 84%
22:00 +3°C° 0 mm 2 mps 741 mmHg 87%
23:00 +2°C° 0 mm 2 mps 741 mmHg 90%

Tomorrow, 9 May, Sunday

Time Temperature Precipitation Wind Pressure Humidity
00:00 +2°C° 0 mm 2 mps 741 mmHg 91%
01:00 +2°C° 0 mm 2 mps 742 mmHg 92%
02:00 +1°C° 0 mm 2 mps 742 mmHg 94%
03:00 +1°C° 0 mm 2 mps 742 mmHg 94%
04:00 +1°C° 0 mm 2 mps 743 mmHg 95%
05:00 +1°C° 0 mm 2 mps 743 mmHg 95%
06:00 +2°C° 0 mm 2 mps 744 mmHg 89%
07:00 +4°C° 0 mm 2 mps 744 mmHg 83%
08:00 +6°C° 0 mm 2 mps 745 mmHg 77%
09:00 +7°C° 0 mm 2 mps 745 mmHg 69%
10:00 +9°C° 0 mm 2 mps 745 mmHg 61%
11:00 +10°C° 0 mm 3 mps 745 mmHg 54%
12:00 +11°C° 0 mm 3 mps 745 mmHg 50%
13:00 +12°C° 0 mm 3 mps 745 mmHg 46%
14:00 +12°C° 0 mm 3 mps 745 mmHg 43%
15:00 +12°C° 0 mm 3 mps 745 mmHg 45%
16:00 +12°C° 0 mm 3 mps 745 mmHg 47%
17:00 +12°C° 0 mm 3 mps 744 mmHg 50%
18:00 +11°C° 0 mm 3 mps 745 mmHg 57%
19:00 +9°C° 0 mm 3 mps 745 mmHg 65%
20:00 +7°C° 0 mm 3 mps 745 mmHg 72%
21:00 +8°C° 0 mm 3 mps 745 mmHg 70%
22:00 +7°C° 0 mm 4 mps 745 mmHg 68%
23:00 +7°C° 0 mm 4 mps 745 mmHg 65%

Day after tomorrow, 10 May, Monday

Time Temperature Precipitation Wind Pressure Humidity
00:00 +6°C° 0 mm 4 mps 745 mmHg 69%
01:00 +5°C° 0 mm 4 mps 745 mmHg 73%
02:00 +4°C° 0 mm 3 mps 745 mmHg 77%
03:00 +4°C° 0 mm 3 mps 745 mmHg 78%
04:00 +4°C° 0 mm 3 mps 746 mmHg 78%
05:00 +4°C° 0 mm 3 mps 746 mmHg 79%
06:00 +6°C° 0 mm 4 mps 746 mmHg 74%
07:00 +8°C° 0 mm 4 mps 746 mmHg 70%
08:00 +10°C° 0 mm 5 mps 746 mmHg 65%
09:00 +12°C° 0 mm 5 mps 746 mmHg 61%
10:00 +14°C° 0 mm 6 mps 746 mmHg 58%
11:00 +15°C° 0 mm 6 mps 746 mmHg 54%
12:00 +16°C° 0 mm 6 mps 746 mmHg 52%
13:00 +16°C° 0 mm 6 mps 746 mmHg 51%
14:00 +17°C° 0 mm 6 mps 746 mmHg 49%
15:00 +17°C° 0 mm 6 mps 746 mmHg 52%
16:00 +17°C° 0 mm 6 mps 746 mmHg 55%
17:00 +17°C° 0 mm 6 mps 745 mmHg 58%
18:00 +15°C° 0 mm 5 mps 745 mmHg 64%
19:00 +13°C° 0 mm 4 mps 745 mmHg 70%
20:00 +11°C° 0 mm 4 mps 746 mmHg 76%
21:00 +11°C° 0 mm 4 mps 746 mmHg 75%
22:00 +10°C° 0 mm 4 mps 746 mmHg 74%
23:00 +9°C° 0 mm 5 mps 746 mmHg 73%

11 May, Tuesday

Time Temperature Precipitation Wind Pressure Humidity
00:00 +8°C° 0 mm 5 mps 746 mmHg 74%
01:00 +8°C° 0 mm 5 mps 746 mmHg 75%
02:00 +8°C° 0 mm 5 mps 745 mmHg 76%
03:00 +7°C° 0 mm 5 mps 746 mmHg 78%
04:00 +7°C° 0 mm 5 mps 746 mmHg 79%
05:00 +7°C° 0 mm 5 mps 746 mmHg 81%
06:00 +8°C° 0 mm 5 mps 746 mmHg 77%
07:00 +10°C° 0 mm 6 mps 746 mmHg 73%
08:00 +11°C° 0 mm 6 mps 746 mmHg 69%
09:00 +12°C° 0 mm 7 mps 746 mmHg 64%
10:00 +15°C° 0 mm 7 mps 746 mmHg 59%
11:00 +16°C° 0 mm 7 mps 746 mmHg 54%
12:00 +17°C° 0 mm 7 mps 746 mmHg 51%
13:00 +17°C° 0 mm 7 mps 745 mmHg 49%
14:00 +18°C° 0 mm 7 mps 745 mmHg 47%
15:00 +18°C° 0 mm 7 mps 745 mmHg 50%
16:00 +19°C° 0 mm 6 mps 745 mmHg 54%
17:00 +17°C° 0 mm 6 mps 744 mmHg 57%
18:00 +16°C° 0 mm 5 mps 744 mmHg 62%
19:00 +14°C° 0 mm 5 mps 744 mmHg 66%
20:00 +12°C° 0 mm 5 mps 744 mmHg 70%
21:00 +12°C° 0 mm 5 mps 744 mmHg 71%
22:00 +10°C° 0 mm 5 mps 744 mmHg 72%
23:00 +9°C° 0 mm 5 mps 744 mmHg 73%

12 May, Wednesday

Time Temperature Precipitation Wind Pressure Humidity
00:00 +10°C° 0 mm 4 mps 744 mmHg 77%
01:00 +8°C° 0 mm 4 mps 743 mmHg 80%
02:00 +7°C° 0 mm 4 mps 743 mmHg 83%
03:00 +7°C° 0 mm 4 mps 743 mmHg 85%
04:00 +7°C° 0 mm 4 mps 743 mmHg 87%
05:00 +7°C° 0 mm 4 mps 743 mmHg 89%
06:00 +10°C° 0 mm 4 mps 743 mmHg 85%
07:00 +12°C° 0 mm 5 mps 743 mmHg 82%
08:00 +14°C° 0 mm 5 mps 743 mmHg 78%
09:00 +15°C° 0 mm 5 mps 743 mmHg 73%
10:00 +17°C° 0 mm 6 mps 742 mmHg 67%
11:00 +19°C° 0 mm 6 mps 742 mmHg 61%
12:00 +20°C° 0 mm 6 mps 742 mmHg 60%
13:00 +20°C° 0 mm 7 mps 741 mmHg 58%
14:00 +21°C° 0 mm 7 mps 741 mmHg 56%
15:00 +20°C° 0.1 mm 7 mps 741 mmHg 61%
16:00 +18°C° 0.1 mm 7 mps 740 mmHg 66%
17:00 +17°C° 0.1 mm 7 mps 740 mmHg 72%
18:00 +16°C° 0 mm 7 mps 740 mmHg 75%
19:00 +14°C° 0 mm 6 mps 740 mmHg 77%
20:00 +13°C° 0 mm 6 mps 740 mmHg 80%
21:00 +10°C° 0 mm 5 mps 740 mmHg 84%
22:00 +10°C° 0 mm 4 mps 741 mmHg 88%
23:00 +9°C° 0 mm 3 mps 741 mmHg 92%

13 May, Thursday

Time Temperature Precipitation Wind Pressure Humidity
00:00 +8°C° 0 mm 3 mps 741 mmHg 93%
01:00 +8°C° 0 mm 3 mps 740 mmHg 94%
02:00 +7°C° 0 mm 3 mps 740 mmHg 95%
03:00 +7°C° 0 mm 3 mps 740 mmHg 95%
04:00 +7°C° 0 mm 3 mps 740 mmHg 96%
05:00 +7°C° 0 mm 3 mps 740 mmHg 96%
06:00 +9°C° 0 mm 3 mps 740 mmHg 89%
07:00 +11°C° 0 mm 4 mps 739 mmHg 82%
08:00 +12°C° 0 mm 4 mps 739 mmHg 75%
09:00 +14°C° 0 mm 4 mps 738 mmHg 70%
10:00 +15°C° 0 mm 4 mps 738 mmHg 64%
11:00 +17°C° 0 mm 4 mps 738 mmHg 58%
12:00 +18°C° 0 mm 4 mps 737 mmHg 57%
13:00 +18°C° 0 mm 3 mps 736 mmHg 56%
14:00 +18°C° 0 mm 3 mps 736 mmHg 55%
15:00 +17°C° 0.6 mm 3 mps 735 mmHg 65%
16:00 +16°C° 0.6 mm 3 mps 734 mmHg 74%
17:00 +14°C° 0.6 mm 3 mps 734 mmHg 84%
18:00 +13°C° 1.7 mm 3 mps 734 mmHg 88%
19:00 +12°C° 1.7 mm 4 mps 733 mmHg 92%
20:00 +10°C° 1.7 mm 5 mps 733 mmHg 96%
21:00 +10°C° 3 mm 5 mps 733 mmHg 95%
22:00 +9°C° 3 mm 5 mps 733 mmHg 95%
23:00 +9°C° 3 mm 5 mps 734 mmHg 95%
Show more